Location: Amos Elementary School
(32.6946°N, 97.0908°W)
Time: 05:46:40
(UTC+00:00)

Daily predictions for brighter satellites

Satellite Brightness Start Highest point End
(mag) Time Altitude Azimuth Time Altitude Azimuth Time Altitude Azimuth
CZ-3B R/B 4.0 01:17:15 10° WNW 01:21:18 51° SW 01:33:48 10° SSE
CZ-4B R/B 3.7 01:17:23 10° S 01:22:23 76° WSW 01:27:17 10° NNW
APEX 2.6 01:21:31 10° NNW 01:24:39 58° ENE 01:27:34 10° SSE
CZ-4B R/B 4.2 01:24:01 10° SE 01:28:46 28° ENE 01:33:29 10° NNE
Cosmos 1674 Rocket 3.7 01:27:16 10° N 01:31:39 56° E 01:36:00 10° SSE
Cosmos 1825 3.4 01:29:20 10° NNE 01:31:52 19° ENE 01:34:22 10° SE
USA 234 4.1 01:28:49 10° E 01:34:39 36° NE 01:40:29 10° NNW
NOSS 3-1 (C) 3.4 01:30:48 10° S 01:34:58 34° ESE 01:39:34 10° NE
Meteor 2-11 Rocket 4.4 01:30:46 10° N 01:36:51 72° E 01:42:53 10° SSE
Hubble Space Telescope 1.3 01:34:44 10° WSW 01:38:29 40° S 01:41:39 14° ESE
Cosmos 2082 Rocket 3.1 01:33:46 10° NNW 01:39:17 51° WSW 01:44:45 10° S
Resurs 1-3 3.7 01:37:29 10° SSE 01:41:42 52° ENE 01:45:55 10° N
IKONOS-2 4.4 01:45:30 10° NNE 01:49:43 82° ESE 01:53:54 10° S
Okean O Rocket 2.8 01:49:28 16° ESE 01:51:45 24° ENE 01:55:14 10° NNE
Cosmos 1025 Rocket 3.8 01:48:31 10° NNE 01:52:28 33° E 01:55:30 15° SE
ATLAS 3B R/B 3.3 01:50:13 10° S 01:56:08 33° ESE 02:02:26 10° NE
Resurs 01 Rocket 2.5 01:55:01 18° ESE 01:57:22 29° ENE 02:01:10 10° NNE
YAOGAN 1 4.3 01:53:52 10° SSW 01:57:45 34° W 02:01:39 10° NNW
Cosmos 2218 Rocket 4.4 01:52:13 10° N 01:58:15 43° E 02:03:55 11° SSE
Cosmos 1346 Rocket 2.5 01:56:21 10° S 02:00:09 77° E 02:03:59 10° N
SJ-6B 2.8 01:58:03 10° S 02:01:58 82° W 02:05:56 10° NNW
USA 281 4.1 01:59:34 18° ESE 02:03:20 30° ENE 02:08:52 10° N
Cosmos 1975 Rocket 4.2 02:01:05 10° NNE 02:04:32 23° ENE 02:05:12 22° E
Cosmos 1302 Rocket 4.1 01:59:46 10° SSW 02:05:02 79° WNW 02:10:19 10° NNE
Cosmos 1328 3.8 02:06:13 10° N 02:09:54 52° E 02:11:47 26° SSE
OAO 3 Rocket 3.4 02:05:32 10° W 02:10:23 66° N 02:13:29 22° E
Cosmos 1782 Rocket 3.4 02:09:24 10° S 02:13:43 84° E 02:18:07 10° N
Meteor 1-21 Rocket 4.4 02:09:55 10° N 02:15:46 59° E 02:20:11 18° SSE
PAYLOAD B 4.4 02:10:34 10° S 02:16:04 74° WSW 02:21:38 10° NNW
USA 186 1.5 02:16:17 36° SSE 02:17:26 80° ENE 02:20:29 10° N
DELTA 2 R/B (1) 3.6 02:11:50 10° WNW 02:17:28 80° NNE 02:20:22 30° ESE
Cosmos 1892 2.9 02:14:57 10° NNW 02:18:28 63° W 02:21:37 12° S
CZ-4 R/B 2.2 02:18:23 10° S 02:22:15 49° W 02:26:05 10° NNW
ATLAS 5 CENTAUR R/B 0.6 02:19:05 10° SSW 02:22:23 75° ESE 02:25:46 10° NNE
Delta 2 Rocket 4.4 02:17:34 10° WSW 02:24:11 49° S 02:26:51 30° SE
Cosmos 1455 3.2 02:22:58 10° SSW 02:26:22 43° W 02:29:48 10° N
Cosmos 864 Rocket 4.4 02:22:18 10° N 02:28:33 80° E 02:34:03 14° S
Cosmos 968 Rocket 3.5 02:23:42 10° NNW 02:28:49 78° WSW 02:32:17 21° S
Feng Yun 1-1 Rocket 4.2 02:28:09 17° SSE 02:32:25 87° WSW 02:38:01 10° NNW
CSL-04 Debris 4.1 02:34:11 21° S 02:37:54 85° WSW 02:43:22 10° NNW
Cosmos 1300 Rocket 4.1 02:35:53 10° SSW 02:40:09 59° W 02:44:29 10° N
CSL-04 Rocket 3.8 02:45:00 25° S 02:48:22 74° WSW 02:53:53 10° NNW
In-Cosmos 22 Rocket 4.0 02:48:06 10° N 02:53:33 78° E 02:54:49 54° SSE
SJ 16-02 1.3 02:49:26 10° NNW 02:53:45 76° WSW 02:54:06 70° SSW
CZ-4C R/B 4.0 02:54:03 10° N 02:56:34 42° NNW 02:56:34 42° NNW
NOSS 3-1 (A) 2.8 02:57:06 10° SSW 03:01:47 86° WNW 03:07:08 10° NNE
Cosmos 2098 Rocket 4.2 02:57:10 10° SSW 03:02:47 53° W 03:07:28 10° N
Okean-O 2.8 03:06:02 66° N 03:06:02 66° N 03:09:50 10° N
Terra 3.8 03:09:26 17° NNE 03:09:26 17° NNE 03:10:58 10° NNE
Atlas Centaur 2 3.9 03:04:45 10° SW 03:05:22 13° SW 03:05:22 13° SW
USA 234 3.6 03:15:42 45° S 03:17:23 57° SW 03:23:48 10° NW
Hubble Space Telescope 2.9 03:15:08 10° WSW 03:16:32 20° WSW 03:16:32 20° WSW
Cosmos 1833 4.2 03:14:08 10° NNW 03:19:46 73° WSW 03:19:59 72° SW
Okean O Rocket 3.6 03:26:49 20° WSW 03:27:54 22° W 03:31:19 10° NW
Milstar 3 4.4 03:17:16 10° WSW 03:27:57 72° S 03:37:38 36° E
Resurs 01 Rocket 3.9 03:32:30 17° WSW 03:33:47 19° W 03:36:55 10° NW
ATLAS 3B R/B 3.8 03:40:04 10° WSW 03:46:35 43° NW 03:53:36 10° NNE
USA 281 3.9 03:46:26 40° SW 03:47:32 44° WSW 03:53:45 10° NW
Centaur D-1AR AC-36 4.0 03:47:19 10° WSW 04:13:23 20° E 04:40:46 10° E
Centaur D-1AR AC-36 4.0 03:47:18 10° WSW 04:13:23 20° E 04:40:46 10° E
Centaur D-1AR AC-36 4.0 03:47:18 10° WSW 04:13:23 20° E 04:40:45 10° E
SPOT 5 4.5 04:03:53 35° WNW 04:03:53 35° WNW 04:07:29 10° NNW
CZ-4C R/B 4.5 04:31:36 10° N 04:36:24 25° NNE 04:36:24 25° NNE
Cosmos 2297 Rocket 4.4 04:39:43 10° NNW 04:41:24 20° N 04:41:24 20° N
Cosmos 2237 Rocket 4.5 08:16:42 18° ENE 08:16:42 18° ENE 08:18:51 10° NE
Resurs 1-4 Rocket 4.3 08:28:32 10° N 08:30:10 21° N 08:30:10 21° N
H-2A R/B 4.3 08:46:24 38° SSE 08:46:24 38° SSE 09:05:27 10° ESE
Cosmos 2219 Rocket 4.3 08:55:50 17° NNW 08:55:50 17° NNW 08:57:26 10° N
Cosmos 2278 Rocket 4.3 08:48:30 10° N 08:52:57 23° ENE 08:57:22 10° ESE
SL-16 R/B 4.5 09:03:21 14° ESE 09:05:19 16° E 09:08:38 10° ENE
CZ-2C R/B 4.2 09:09:17 10° NE 09:13:36 26° E 09:14:38 25° ESE
BREEZE-M DEB (TANK) 4.1 09:13:45 71° W 09:14:42 81° NW 09:40:26 10° NE
Meteor 1-19 Rocket 4.5 09:20:01 69° NNE 09:20:01 69° NNE 09:25:17 10° N
ADEOS II 3.7 09:15:12 10° N 09:17:38 26° NNW 09:17:38 26° NNW
Cosmos 1092 Rocket 3.9 09:24:59 77° ESE 09:25:08 78° E 09:31:16 10° N
Cosmos 2026 Rocket 3.8 09:32:11 81° S 09:32:33 89° E 09:38:55 10° N
CZ-2D R/B 4.2 09:29:18 10° NNW 09:30:50 16° NW 09:30:50 16° NW
BREEZE-M DEB (TANK) 3.6 09:34:04 60° NW 09:34:08 60° NW 09:37:44 10° NE
Envisat 3.3 09:29:38 10° NNE 09:34:38 59° E 09:34:51 58° ESE
SL-16 R/B 2.7 09:36:56 56° NW 09:36:56 56° NW 09:42:03 10° NNW
EO 1 Delta rocket 4.2 09:38:06 10° N 09:41:49 59° N 09:41:49 59° N
Meteor 1-27 Rocket 4.1 09:46:40 49° NW 09:46:40 49° NW 09:51:29 10° N
Meteor 2-4 Rocket 3.9 09:48:37 43° SSE 09:50:15 65° E 09:55:40 10° NNE
CZ-4 R/B 4.0 09:45:55 10° N 09:49:59 62° NNW 09:49:59 62° NNW
Cosmos 1943 Rocket 3.5 09:46:58 10° N 09:52:18 41° ENE 09:57:35 10° SE
Thor Agena Rocket 3.8 09:47:25 10° NNE 09:52:25 63° ESE 09:53:50 44° SSE
Cosmos 1627 Rocket 4.4 09:53:01 59° WSW 09:53:36 61° W 09:59:53 10° N
YAOGAN 6 4.0 09:50:57 10° NNE 09:53:02 33° NE 09:53:02 33° NE
H-2A R/B 4.4 09:52:33 10° NE 09:56:08 19° E 09:59:46 10° SE
Cosmos 2237 Rocket 2.8 09:58:31 40° WNW 09:58:31 40° WNW 10:03:39 10° N
Cosmos 1980 4.4 09:59:54 36° WNW 09:59:54 36° WNW 10:04:51 10° N
NOAA 11 4.1 09:55:08 10° NNE 10:00:36 89° ESE 10:02:18 46° SSW
Cosmos 2112 Rocket 3.9 10:01:07 65° WSW 10:01:43 73° WNW 10:07:04 10° NNE
Cosmos 1340 Rocket 3.4 10:04:12 45° NNW 10:04:12 45° NNW 10:07:00 10° N
ALOS 3.9 10:00:04 10° NNW 10:02:16 21° NW 10:02:16 21° NW
Cosmos 1867 3.4 10:00:42 10° NW 10:06:07 64° WSW 10:11:28 10° SSE
Cosmos 1328 Rocket 3.5 10:08:29 58° S 10:09:19 88° E 10:13:46 10° N
ATLAS 2AS CENTAUR R/B 2.8 10:07:19 36° SSW 10:10:45 85° WNW 10:18:04 10° NNE
Cosmos 1805 3.1 10:09:39 10° N 10:13:22 81° E 10:13:52 64° SSE
Delta 128 3.9 10:17:14 44° S 10:17:18 44° S 10:21:36 10° ESE
Meteor 2-9 Rocket 4.5 10:12:26 10° NNW 10:17:28 41° W 10:17:39 41° W
Chandra Rocket (1) 2.4 10:18:55 37° SSE 10:18:56 37° SSE 10:23:59 10° E
IRS-1D 3.5 10:18:39 10° N 10:23:43 66° WNW 10:26:05 32° SSW
Cosmos 1633 Rocket 3.2 10:19:40 10° N 10:24:00 73° E 10:28:20 10° SSE
CSL-04 DEB 4.3 10:19:57 10° N 10:24:07 79° WNW 10:25:35 40° SSW
Cosmos 2266 Rocket 4.3 10:22:01 10° S 10:28:04 66° E 10:34:03 10° NNE
Cosmos 1680 Rocket 4.3 10:28:09 31° W 10:28:54 32° WNW 10:33:39 10° N
ASC 2 Rocket 4.4 10:32:35 26° SSW 10:34:10 32° S 10:39:41 10° ESE
Iridium 51 3.7 10:33:29 29° S 10:35:05 86° W 10:38:27 10° N
Cosmos 2278 Rocket 2.5 10:31:50 10° NW 10:37:06 40° WSW 10:42:21 10° S
NOSS 2-2 (C) 4.4 10:32:54 10° NNW 10:38:08 87° WSW 10:45:39 10° SSE
Cosmos 1461 2.8 10:38:35 10° NW 10:42:15 47° WSW 10:45:53 10° S
USA 308 3.1 10:41:22 34° W 10:42:24 44° NW 10:46:09 10° NNE
Cosmos 1674 3.2 10:39:52 10° S 10:43:11 51° E 10:46:31 10° NNE
Cosmos 1420 Rocket 3.9 10:38:17 10° NNW 10:43:33 76° WSW 10:48:48 10° S
Delta 2 Rocket 4.4 10:40:59 24° SSW 10:43:34 44° SSE 10:48:03 10° E
Cosmos 494 Rocket 3.9 10:42:24 18° SSW 10:46:14 68° WNW 10:51:22 10° N
ATLAS 5 CENTAUR R/B 3.2 10:42:33 20° WSW 10:46:47 28° SSW 10:50:45 10° SE
Cosmos 2056 Rocket 3.5 10:42:08 10° NNW 10:47:33 84° WSW 10:52:57 10° SSE
SL-16 R/B 2.4 10:45:14 21° SW 10:48:52 53° WNW 10:54:23 10° N
Cosmos 2344 4.5 10:41:11 10° NW 10:50:36 60° WSW 11:03:54 10° S
Sakura Rocket 4.0 10:50:19 20° SSW 10:50:40 20° SSW 10:53:31 10° SSE
CZ-2C R/B 3.4 10:47:11 10° N 10:51:37 29° WNW 10:53:57 21° WSW
Cosmos 1626 2.6 10:51:53 28° W 10:52:16 29° W 10:55:12 10° NNW
Cosmos 1766 3.3 10:49:43 10° N 10:53:24 75° E 10:57:04 10° S
Cosmos 1939 Rocket 3.6 10:50:14 10° NNE 10:53:54 50° E 10:57:35 10° S
Cosmos 921 Rocket 4.1 10:53:25 22° W 10:54:30 24° WNW 10:57:59 10° NNW
KORONAS-FOTON 4.1 10:51:40 10° S 10:55:18 65° E 10:58:56 10° NNE
Cosmos 1340 2.9 10:52:22 10° NNW 10:55:33 37° W 10:58:35 11° SSW
Cosmos 1553 Rocket 4.2 10:51:56 10° NNW 10:57:52 48° W 11:03:43 10° SSW
Cosmos 1515 Rocket 3.7 10:54:47 10° SSW 10:59:07 54° W 11:03:29 10° N
Cosmos 1624 Rocket 3.9 10:54:42 10° NNW 10:59:52 64° WSW 11:04:58 10° S
Cosmos 1975 3.7 10:56:56 10° NNW 11:00:13 26° W 11:02:30 16° SW
ASTRO E2 3.2 11:00:59 19° SW 11:03:03 40° SSE 11:06:24 10° E
Cosmos 1484 Rocket 2.7 11:05:16 10° N 11:08:45 51° WNW 11:12:13 10° SSW
Cosmos 1470 Rocket 3.7 11:05:54 10° NNW 11:10:10 51° W 11:14:27 10° SSW
CBERS-1 4.1 11:08:46 10° N 11:13:44 55° WNW 11:18:40 10° SSW
ATLAS 5 CENTAUR R/B 3.6 11:08:43 10° NNW 11:13:55 45° ENE 11:20:09 10° SE
H-2A R/B 2.3 11:12:15 10° NNE 11:15:36 87° ESE 11:18:54 10° SSW
CZ-3 R/B 3.2 11:01:21 12° WSW 11:20:32 52° S 11:26:59 10° E
In-Cosmos 22 4.4 11:18:02 10° S 11:23:22 74° E 11:28:51 10° NNE
YAOGAN 11 4.1 11:23:37 10° S 11:28:03 70° W 11:32:32 10° NNW
Cosmos 1842 4.0 11:26:27 10° SW 11:29:46 30° W 11:33:06 10° NNW
USA 290 2.1 11:27:52 10° NNW 11:30:55 60° WSW 11:33:55 10° S
COSMO-SKYMED 1 3.9 11:26:54 10° SSE 11:31:02 46° ENE 11:35:12 10° N
BlueWalker 3 1.8 11:30:07 10° NW 11:33:56 81° SW 11:37:44 10° SE
IRS-1C 4.2 11:28:38 10° NNE 11:33:59 88° WNW 11:39:18 10° SSW
H-2A R/B 2.6 11:30:55 10° N 11:35:32 38° WNW 11:40:16 10° SW
Cosmos 1943 Rocket 3.3 11:31:27 10° NW 11:35:40 22° W 11:39:52 10° SSW
